AAL1766 KJFK-KDFW

Flight info

Callsign AAL1766
Flight time 3h 36m
Altitude 32000
Route RBV Q430 SAAME J6 HVQ Q68 YOCKY/N0474F340 Q68 LITTR FEWWW BRDJE5
Aircraft B738/M-SDE2E3FGHIRWXY/LB1

Departure

Time 2026-05-06 23:36
Airport John F. Kennedy International Airport (KJFK)

Arrival

Time 2026-05-07 03:13
Airport Dallas Fort Worth International Airport (KDFW)
Time Latitude Longitude Altitude Speed Heading
2026-05-06 22:44 40.64853 -73.79178 15 ft 0 kts 172°
2026-05-06 23:20 40.64876 -73.79185 16 ft 4 kts 159°
2026-05-06 23:21 40.64899 -73.79202 17 ft 4 kts 131°
2026-05-06 23:21 40.64909 -73.79229 16 ft 4 kts 78°
2026-05-06 23:21 40.64906 -73.79240 18 ft 2 kts 61°
2026-05-06 23:27 40.64906 -73.79239 15 ft 1 kts 61°
2026-05-06 23:28 40.64921 -73.79205 17 ft 9 kts 61°
2026-05-06 23:28 40.64963 -73.79105 15 ft 15 kts 61°
2026-05-06 23:28 40.65012 -73.78990 16 ft 14 kts 60°
2026-05-06 23:28 40.65061 -73.78922 15 ft 0 kts 18°
2026-05-06 23:29 40.65064 -73.78920 15 ft 2 kts 19°
2026-05-06 23:29 40.65110 -73.78913 15 ft 11 kts
2026-05-06 23:30 40.65139 -73.78850 15 ft 11 kts 91°
2026-05-06 23:30 40.65156 -73.78732 15 ft 16 kts 67°
2026-05-06 23:30 40.65219 -73.78590 19 ft 19 kts 62°
2026-05-06 23:30 40.65268 -73.78443 16 ft 16 kts 82°
2026-05-06 23:31 40.65230 -73.78293 15 ft 20 kts 122°
2026-05-06 23:31 40.65158 -73.78141 15 ft 15 kts 121°
2026-05-06 23:31 40.65109 -73.78037 15 ft 13 kts 122°
2026-05-06 23:31 40.65108 -73.78004 15 ft 4 kts 45°
2026-05-06 23:32 40.65179 -73.77956 15 ft 19 kts 34°
2026-05-06 23:32 40.65323 -73.77835 16 ft 15 kts 28°
2026-05-06 23:32 40.65316 -73.77717 15 ft 21 kts 118°
2026-05-06 23:32 40.65218 -73.77509 15 ft 33 kts 119°
2026-05-06 23:33 40.65091 -73.77230 15 ft 35 kts 120°
2026-05-06 23:33 40.64978 -73.76982 16 ft 26 kts 122°
2026-05-06 23:33 40.64894 -73.76802 16 ft 20 kts 116°
2026-05-06 23:33 40.64883 -73.76699 16 ft 7 kts 56°
2026-05-06 23:34 40.64924 -73.76662 15 ft 7 kts 30°
2026-05-06 23:34 40.64966 -73.76630 15 ft 7 kts 30°
2026-05-06 23:34 40.65009 -73.76596 15 ft 8 kts 31°
2026-05-06 23:34 40.65068 -73.76550 15 ft 12 kts 31°
2026-05-06 23:35 40.65098 -73.76465 15 ft 12 kts 121°
2026-05-06 23:35 40.65052 -73.76369 15 ft 12 kts 124°
2026-05-06 23:35 40.65009 -73.76359 15 ft 8 kts 212°
2026-05-06 23:35 40.64945 -73.76416 15 ft 24 kts 212°
2026-05-06 23:36 40.64585 -73.76698 15 ft 96 kts 211°
2026-05-06 23:36 40.63827 -73.77285 31 ft 154 kts 210°
2026-05-06 23:36 40.62867 -73.78053 613 ft 163 kts 213°
2026-05-06 23:36 40.61969 -73.78835 1615 ft 152 kts 216°
2026-05-06 23:37 40.61003 -73.79699 1994 ft 182 kts 218°
2026-05-06 23:37 40.59921 -73.80696 2251 ft 203 kts 217°
2026-05-06 23:37 40.58724 -73.81783 2718 ft 214 kts 218°
2026-05-06 23:37 40.57491 -73.82917 3365 ft 218 kts 218°
2026-05-06 23:38 40.56234 -73.84083 3936 ft 229 kts 219°
2026-05-06 23:38 40.54894 -73.85357 4509 ft 243 kts 219°
2026-05-06 23:38 40.53508 -73.86660 5311 ft 245 kts 219°
2026-05-06 23:38 40.52145 -73.88002 6185 ft 245 kts 222°
2026-05-06 23:39 40.50788 -73.89400 6934 ft 249 kts 223°
2026-05-06 23:39 40.49424 -73.90811 7725 ft 251 kts 223°
2026-05-06 23:39 40.48518 -73.91766 8256 ft 252 kts 223°
2026-05-06 23:39 40.47050 -73.94039 9197 ft 252 kts 240°
2026-05-06 23:40 40.46126 -73.96003 10035 ft 252 kts 241°
2026-05-06 23:40 40.45510 -73.97320 10400 ft 260 kts 241°
2026-05-06 23:40 40.44523 -73.99426 10590 ft 282 kts 240°
2026-05-06 23:40 40.43454 -74.01687 10753 ft 305 kts 240°
2026-05-06 23:41 40.41883 -74.04980 10964 ft 332 kts 240°
2026-05-06 23:41 40.41052 -74.06711 11062 ft 344 kts 240°
2026-05-06 23:41 40.39744 -74.09423 11368 ft 357 kts 239°
2026-05-06 23:41 40.38405 -74.12189 11915 ft 360 kts 239°
2026-05-06 23:42 40.37058 -74.14961 12556 ft 361 kts 239°
2026-05-06 23:42 40.35700 -74.17755 13135 ft 365 kts 239°
2026-05-06 23:42 40.34329 -74.20575 13710 ft 367 kts 239°
2026-05-06 23:42 40.32948 -74.23412 14187 ft 371 kts 239°
2026-05-06 23:43 40.31562 -74.26258 14687 ft 373 kts 239°
2026-05-06 23:43 40.30160 -74.29136 15198 ft 375 kts 239°
2026-05-06 23:43 40.28745 -74.32036 15659 ft 379 kts 239°
2026-05-06 23:43 40.27317 -74.34963 16140 ft 382 kts 239°
2026-05-06 23:44 40.25878 -74.37907 16617 ft 384 kts 240°
2026-05-06 23:44 40.24434 -74.40860 17082 ft 387 kts 240°
2026-05-06 23:44 40.22995 -74.43798 17530 ft 389 kts 240°
2026-05-06 23:44 40.21617 -74.46851 17964 ft 390 kts 246°
2026-05-06 23:45 40.20603 -74.50144 18378 ft 390 kts 253°
2026-05-06 23:45 40.19889 -74.53561 18827 ft 389 kts 260°
2026-05-06 23:45 40.19552 -74.57068 19300 ft 389 kts 264°
2026-05-06 23:45 40.19293 -74.60587 19736 ft 389 kts 265°
2026-05-06 23:46 40.19035 -74.64116 20141 ft 390 kts 265°
2026-05-06 23:46 40.18772 -74.67658 20540 ft 391 kts 264°
2026-05-06 23:46 40.18503 -74.71199 20972 ft 391 kts 264°
2026-05-06 23:46 40.18229 -74.74751 21384 ft 392 kts 264°
2026-05-06 23:47 40.17952 -74.78292 21749 ft 393 kts 264°
2026-05-06 23:47 40.17673 -74.81813 22096 ft 394 kts 264°
2026-05-06 23:47 40.17390 -74.85378 22510 ft 394 kts 264°
2026-05-06 23:47 40.17105 -74.88943 22880 ft 394 kts 264°
2026-05-06 23:48 40.16818 -74.92517 23221 ft 395 kts 264°
2026-05-06 23:48 40.16530 -74.96097 23542 ft 396 kts 264°
2026-05-06 23:48 40.16241 -74.99679 23812 ft 396 kts 264°
2026-05-06 23:48 40.15948 -75.03279 24059 ft 397 kts 264°
2026-05-06 23:49 40.15655 -75.06877 24289 ft 399 kts 264°
2026-05-06 23:49 40.15360 -75.10489 24529 ft 400 kts 264°
2026-05-06 23:49 40.15064 -75.14100 24801 ft 400 kts 264°
2026-05-06 23:49 40.14765 -75.17725 25050 ft 401 kts 264°
2026-05-06 23:50 40.14469 -75.21304 25262 ft 402 kts 264°
2026-05-06 23:50 40.13864 -75.28589 25702 ft 403 kts 264°
2026-05-06 23:50 40.13559 -75.32234 25905 ft 404 kts 264°
2026-05-06 23:51 40.13252 -75.35894 26093 ft 404 kts 264°
2026-05-06 23:51 40.12944 -75.39531 26325 ft 403 kts 264°
2026-05-06 23:51 40.12629 -75.43171 26635 ft 400 kts 264°
2026-05-06 23:51 40.12315 -75.46770 26936 ft 398 kts 264°
2026-05-06 23:52 40.11999 -75.50368 27184 ft 397 kts 264°
2026-05-06 23:52 40.11684 -75.53958 27402 ft 397 kts 264°
2026-05-06 23:52 40.11373 -75.57488 27720 ft 395 kts 264°
2026-05-06 23:52 40.11060 -75.61042 28029 ft 393 kts 264°
2026-05-06 23:53 40.10747 -75.64580 28289 ft 392 kts 264°
2026-05-06 23:53 40.10433 -75.68119 28558 ft 391 kts 264°
2026-05-06 23:53 40.10120 -75.71635 28882 ft 388 kts 264°
2026-05-06 23:53 40.09807 -75.75136 29191 ft 387 kts 264°
2026-05-06 23:54 40.09495 -75.78626 29463 ft 386 kts 264°
2026-05-06 23:54 40.09181 -75.82106 29737 ft 385 kts 264°
2026-05-06 23:54 40.08870 -75.85573 30076 ft 382 kts 264°
2026-05-06 23:54 40.08563 -75.89007 30420 ft 379 kts 264°
2026-05-06 23:55 40.08258 -75.92407 30756 ft 376 kts 264°
2026-05-06 23:55 40.07954 -75.95792 31029 ft 374 kts 264°
2026-05-06 23:55 40.07652 -75.99149 31367 ft 370 kts 264°
2026-05-06 23:55 40.07352 -76.02469 31695 ft 367 kts 264°
2026-05-06 23:56 40.07056 -76.05734 31845 ft 367 kts 264°
2026-05-06 23:56 40.06755 -76.09041 31848 ft 364 kts 264°
2026-05-06 23:56 40.06162 -76.15514 31848 ft 355 kts 264°
2026-05-06 23:57 40.05574 -76.21912 31856 ft 355 kts 264°
2026-05-06 23:57 40.04982 -76.28317 31856 ft 355 kts 264°
2026-05-06 23:58 40.04387 -76.34709 31857 ft 355 kts 264°
2026-05-06 23:58 40.03791 -76.41072 31853 ft 355 kts 264°
2026-05-06 23:59 40.02741 -76.47383 31870 ft 358 kts 256°
2026-05-06 23:59 40.00806 -76.53406 31854 ft 365 kts 247°
2026-05-07 00:00 39.98169 -76.59095 31864 ft 367 kts 246°
2026-05-07 00:00 39.95514 -76.64769 31864 ft 366 kts 246°
2026-05-07 00:01 39.92875 -76.70447 31862 ft 366 kts 246°
2026-05-07 00:01 39.90246 -76.76080 31877 ft 366 kts 246°
2026-05-07 00:02 39.87594 -76.81748 31865 ft 366 kts 246°
2026-05-07 00:02 39.84945 -76.87400 31865 ft 366 kts 246°
2026-05-07 00:03 39.82295 -76.93047 31878 ft 365 kts 246°
2026-05-07 00:03 39.79645 -76.98684 31867 ft 365 kts 246°
2026-05-07 00:04 39.76992 -77.04318 31897 ft 365 kts 246°
2026-05-07 00:04 39.74359 -77.09899 31889 ft 364 kts 246°
2026-05-07 00:05 39.71705 -77.15517 31890 ft 364 kts 246°
2026-05-07 00:05 39.69053 -77.21118 31885 ft 364 kts 246°
2026-05-07 00:06 39.66394 -77.26725 31879 ft 364 kts 246°
2026-05-07 00:06 39.63733 -77.32327 31900 ft 364 kts 245°
2026-05-07 00:07 39.61071 -77.37924 31905 ft 365 kts 245°
2026-05-07 00:07 39.59731 -77.40741 32036 ft 366 kts 245°
2026-05-07 00:07 39.58399 -77.43534 32331 ft 363 kts 245°
2026-05-07 00:08 39.57071 -77.46314 32596 ft 361 kts 245°
2026-05-07 00:08 39.55771 -77.49034 32884 ft 358 kts 245°
2026-05-07 00:08 39.54462 -77.51772 33136 ft 357 kts 245°
2026-05-07 00:08 39.53153 -77.54512 33333 ft 357 kts 245°
2026-05-07 00:09 39.51845 -77.57246 33521 ft 357 kts 245°
2026-05-07 00:09 39.50534 -77.59984 33694 ft 357 kts 245°
2026-05-07 00:09 39.49236 -77.62691 33835 ft 352 kts 245°
2026-05-07 00:09 39.47941 -77.65389 33881 ft 352 kts 245°
2026-05-07 00:10 39.45341 -77.70809 33896 ft 356 kts 245°
2026-05-07 00:10 39.42711 -77.76275 33892 ft 358 kts 245°
2026-05-07 00:11 39.40069 -77.81755 33892 ft 359 kts 245°
2026-05-07 00:11 39.37575 -77.87287 33899 ft 356 kts 248°
2026-05-07 00:12 39.35314 -77.92994 33897 ft 356 kts 248°
2026-05-07 00:12 39.33063 -77.98704 33900 ft 356 kts 248°
2026-05-07 00:13 39.30820 -78.04362 33893 ft 356 kts 248°
2026-05-07 00:13 39.28556 -78.10045 33897 ft 356 kts 248°
2026-05-07 00:14 39.26290 -78.15718 33904 ft 355 kts 248°
2026-05-07 00:14 39.24020 -78.21389 33906 ft 355 kts 248°
2026-05-07 00:15 39.21752 -78.27044 33903 ft 355 kts 248°
2026-05-07 00:15 39.19473 -78.32715 33899 ft 355 kts 248°
2026-05-07 00:16 39.17198 -78.38366 33897 ft 355 kts 248°
2026-05-07 00:16 39.14919 -78.44018 33905 ft 356 kts 248°
2026-05-07 00:17 39.12632 -78.49678 33893 ft 356 kts 248°
2026-05-07 00:17 39.10340 -78.55339 33892 ft 356 kts 248°
2026-05-07 00:18 39.08047 -78.60994 33885 ft 356 kts 248°
2026-05-07 00:18 39.05755 -78.66635 33895 ft 355 kts 248°
2026-05-07 00:19 39.03461 -78.72273 33881 ft 356 kts 247°
2026-05-07 00:19 39.01175 -78.77882 34170 ft 355 kts 248°
2026-05-07 00:20 39.00018 -78.80716 34403 ft 353 kts 248°
2026-05-07 00:20 38.98891 -78.83472 34576 ft 352 kts 248°
2026-05-07 00:20 38.97750 -78.86262 34733 ft 352 kts 248°
2026-05-07 00:20 38.96609 -78.89047 34905 ft 351 kts 248°
2026-05-07 00:21 38.95474 -78.91815 35110 ft 349 kts 248°
2026-05-07 00:21 38.94345 -78.94567 35283 ft 348 kts 248°
2026-05-07 00:21 38.93212 -78.97329 35403 ft 349 kts 248°
2026-05-07 00:21 38.92081 -79.00086 35561 ft 349 kts 248°
2026-05-07 00:22 38.90950 -79.02837 35763 ft 346 kts 248°
2026-05-07 00:22 38.89834 -79.05544 35871 ft 342 kts 249°
2026-05-07 00:22 38.87608 -79.10959 35907 ft 345 kts 249°
2026-05-07 00:23 38.85348 -79.16438 35904 ft 350 kts 249°
2026-05-07 00:23 38.83550 -79.22177 35910 ft 345 kts 258°
2026-05-07 00:24 38.82456 -79.28134 35904 ft 345 kts 259°
2026-05-07 00:24 38.81396 -79.34131 35900 ft 342 kts 259°
2026-05-07 00:25 38.80339 -79.40052 35915 ft 339 kts 259°
2026-05-07 00:25 38.79457 -79.44953 35932 ft 336 kts 259°
2026-05-07 00:26 38.78412 -79.50722 35925 ft 335 kts 259°
2026-05-07 00:26 38.77357 -79.56543 35955 ft 336 kts 259°
2026-05-07 00:27 38.76295 -79.62380 35956 ft 337 kts 259°
2026-05-07 00:27 38.75224 -79.68244 35969 ft 338 kts 259°
2026-05-07 00:28 38.74148 -79.74117 35971 ft 338 kts 259°
2026-05-07 00:28 38.73069 -79.79987 35986 ft 338 kts 259°
2026-05-07 00:29 38.71987 -79.85859 35977 ft 338 kts 259°
2026-05-07 00:30 38.69814 -79.97592 35967 ft 338 kts 259°
2026-05-07 00:30 38.68730 -80.03411 35967 ft 337 kts 259°
2026-05-07 00:31 38.67643 -80.09250 35960 ft 337 kts 259°
2026-05-07 00:31 38.66555 -80.15072 35966 ft 337 kts 259°
2026-05-07 00:32 38.65460 -80.20903 35954 ft 336 kts 259°
2026-05-07 00:32 38.64366 -80.26715 35963 ft 336 kts 259°
2026-05-07 00:33 38.63270 -80.32529 35958 ft 336 kts 259°
2026-05-07 00:33 38.62168 -80.38354 35956 ft 336 kts 259°
2026-05-07 00:34 38.61072 -80.44121 35960 ft 335 kts 258°
2026-05-07 00:34 38.59961 -80.49966 35957 ft 335 kts 258°
2026-05-07 00:35 38.58870 -80.55686 35962 ft 334 kts 258°
2026-05-07 00:35 38.57764 -80.61476 35961 ft 335 kts 258°
2026-05-07 00:36 38.56655 -80.67258 35963 ft 335 kts 258°
2026-05-07 00:36 38.55542 -80.73044 35968 ft 335 kts 258°
2026-05-07 00:37 38.54430 -80.78805 35967 ft 336 kts 258°
2026-05-07 00:37 38.53308 -80.84600 35964 ft 335 kts 258°
2026-05-07 00:38 38.52189 -80.90371 35966 ft 335 kts 258°
2026-05-07 00:38 38.51065 -80.96150 35965 ft 335 kts 258°
2026-05-07 00:39 38.49945 -81.01886 35977 ft 335 kts 258°
2026-05-07 00:39 38.48815 -81.07662 35971 ft 335 kts 258°
2026-05-07 00:40 38.47684 -81.13429 35973 ft 335 kts 258°
2026-05-07 00:40 38.46546 -81.19211 35975 ft 336 kts 258°
2026-05-07 00:41 38.45406 -81.24985 35973 ft 335 kts 258°
2026-05-07 00:41 38.44268 -81.30739 35987 ft 335 kts 258°
2026-05-07 00:42 38.43131 -81.36466 35980 ft 335 kts 258°
2026-05-07 00:42 38.41985 -81.42226 35980 ft 335 kts 258°
2026-05-07 00:43 38.40837 -81.47981 35983 ft 335 kts 258°
2026-05-07 00:43 38.39684 -81.53742 35975 ft 335 kts 258°
2026-05-07 00:44 38.38527 -81.59507 35979 ft 335 kts 258°
2026-05-07 00:44 38.37378 -81.65224 35975 ft 335 kts 258°
2026-05-07 00:45 38.36219 -81.70974 35979 ft 335 kts 258°
2026-05-07 00:45 38.35045 -81.76723 35976 ft 335 kts 256°
2026-05-07 00:46 38.33526 -81.82367 35983 ft 337 kts 254°
2026-05-07 00:46 38.31931 -81.87981 35980 ft 337 kts 254°
2026-05-07 00:47 38.30340 -81.93597 35975 ft 337 kts 254°
2026-05-07 00:47 38.28750 -81.99223 35976 ft 337 kts 254°
2026-05-07 00:48 38.27166 -82.04827 35980 ft 337 kts 254°
2026-05-07 00:48 38.25587 -82.10402 35971 ft 337 kts 254°
2026-05-07 00:49 38.23997 -82.16006 35978 ft 336 kts 254°
2026-05-07 00:49 38.22404 -82.21610 35973 ft 336 kts 254°
2026-05-07 00:50 38.20813 -82.27198 35974 ft 336 kts 254°
2026-05-07 00:50 38.19215 -82.32792 35975 ft 336 kts 254°
2026-05-07 00:51 38.17620 -82.38383 35972 ft 336 kts 254°
2026-05-07 00:51 38.16026 -82.43963 35973 ft 336 kts 254°
2026-05-07 00:52 38.14430 -82.49544 35975 ft 335 kts 254°
2026-05-07 00:52 38.12834 -82.55112 35975 ft 335 kts 253°
2026-05-07 00:53 38.11245 -82.60647 35973 ft 336 kts 253°
2026-05-07 00:53 38.09640 -82.66220 35980 ft 335 kts 253°
2026-05-07 00:54 38.08035 -82.71786 35986 ft 335 kts 253°
2026-05-07 00:54 38.06424 -82.77361 35993 ft 335 kts 253°
2026-05-07 00:55 38.04825 -82.82880 35999 ft 335 kts 253°
2026-05-07 00:55 38.03213 -82.88435 35986 ft 335 kts 253°
2026-05-07 00:56 38.01601 -82.93979 35986 ft 335 kts 253°
2026-05-07 00:56 37.99997 -82.99480 35993 ft 334 kts 253°
2026-05-07 00:57 37.98380 -83.05018 35995 ft 334 kts 253°
2026-05-07 00:57 37.96762 -83.10550 35992 ft 334 kts 253°
2026-05-07 00:58 37.95141 -83.16078 35992 ft 335 kts 253°
2026-05-07 00:58 37.93518 -83.21604 35996 ft 335 kts 253°
2026-05-07 00:59 37.91074 -83.29901 36000 ft 335 kts 253°
2026-05-07 01:00 37.89452 -83.35393 36007 ft 335 kts 253°
2026-05-07 01:00 37.87819 -83.40914 36005 ft 335 kts 253°
2026-05-07 01:01 37.86182 -83.46436 36001 ft 335 kts 253°
2026-05-07 01:01 37.84543 -83.51953 36003 ft 334 kts 253°
2026-05-07 01:02 37.82903 -83.57463 35996 ft 334 kts 253°
2026-05-07 01:02 37.81274 -83.62924 35993 ft 334 kts 253°
2026-05-07 01:03 37.79627 -83.68436 35999 ft 334 kts 253°
2026-05-07 01:03 37.77984 -83.73922 35993 ft 334 kts 253°
2026-05-07 01:04 37.76337 -83.79412 35989 ft 334 kts 252°
2026-05-07 01:04 37.74688 -83.84896 35995 ft 333 kts 252°
2026-05-07 01:05 37.73038 -83.90375 35986 ft 334 kts 252°
2026-05-07 01:05 37.71395 -83.95820 36009 ft 334 kts 252°
2026-05-07 01:06 37.69733 -84.01318 36009 ft 334 kts 252°
2026-05-07 01:06 37.68079 -84.06778 36037 ft 334 kts 252°
2026-05-07 01:07 37.66416 -84.12257 36031 ft 334 kts 252°
2026-05-07 01:07 37.64746 -84.17738 36055 ft 334 kts 252°
2026-05-07 01:08 37.63068 -84.23209 36054 ft 334 kts 252°
2026-05-07 01:08 37.61388 -84.28674 36055 ft 334 kts 252°
2026-05-07 01:09 37.59721 -84.34094 36058 ft 333 kts 252°
2026-05-07 01:09 37.58031 -84.39578 36055 ft 333 kts 252°
2026-05-07 01:10 37.56360 -84.44990 36049 ft 333 kts 252°
2026-05-07 01:10 37.54674 -84.50441 36038 ft 333 kts 252°
2026-05-07 01:11 37.52989 -84.55878 36016 ft 333 kts 252°
2026-05-07 01:11 37.51297 -84.61326 36024 ft 333 kts 252°
2026-05-07 01:12 37.49619 -84.66723 36017 ft 333 kts 252°
2026-05-07 01:12 37.48199 -84.71278 36033 ft 333 kts 252°
2026-05-07 01:13 37.46529 -84.76684 36026 ft 334 kts 252°
2026-05-07 01:13 37.44851 -84.82137 36022 ft 333 kts 252°
2026-05-07 01:14 37.43189 -84.87524 36021 ft 334 kts 252°
2026-05-07 01:14 37.41486 -84.93032 36021 ft 334 kts 252°
2026-05-07 01:15 37.39800 -84.98474 36026 ft 333 kts 252°
2026-05-07 01:15 37.38121 -85.03866 36047 ft 334 kts 252°
2026-05-07 01:16 37.36413 -85.09292 36057 ft 334 kts 251°
2026-05-07 01:16 37.34698 -85.14726 36059 ft 334 kts 251°
2026-05-07 01:17 37.32984 -85.20149 36067 ft 333 kts 251°
2026-05-07 01:17 37.31268 -85.25574 36063 ft 333 kts 251°
2026-05-07 01:18 37.29565 -85.30948 36062 ft 333 kts 251°
2026-05-07 01:18 37.27851 -85.36345 36063 ft 333 kts 251°
2026-05-07 01:19 37.26133 -85.41745 36059 ft 333 kts 251°
2026-05-07 01:19 37.24415 -85.47138 36056 ft 333 kts 251°
2026-05-07 01:20 37.22691 -85.52537 36049 ft 333 kts 251°
2026-05-07 01:20 37.20966 -85.57930 36042 ft 333 kts 251°
2026-05-07 01:21 37.19251 -85.63281 36041 ft 333 kts 251°
2026-05-07 01:21 37.17525 -85.68658 36021 ft 333 kts 251°
2026-05-07 01:22 37.15797 -85.74027 36019 ft 333 kts 251°
2026-05-07 01:22 37.14062 -85.79412 36017 ft 333 kts 251°
2026-05-07 01:23 37.12324 -85.84794 36014 ft 333 kts 251°
2026-05-07 01:23 37.10585 -85.90172 36011 ft 333 kts 251°
2026-05-07 01:24 37.08844 -85.95542 36010 ft 333 kts 251°
2026-05-07 01:24 37.07112 -86.00879 36010 ft 333 kts 251°
2026-05-07 01:25 37.05356 -86.06276 36008 ft 333 kts 251°
2026-05-07 01:25 37.03617 -86.11615 36012 ft 333 kts 251°
2026-05-07 01:26 37.01865 -86.16981 36025 ft 333 kts 251°
2026-05-07 01:26 37.00112 -86.22340 36026 ft 333 kts 250°
2026-05-07 01:27 36.98358 -86.27696 36024 ft 333 kts 250°
2026-05-07 01:27 36.96598 -86.33060 36027 ft 333 kts 250°
2026-05-07 01:28 36.94847 -86.38388 36027 ft 333 kts 250°
2026-05-07 01:28 36.93084 -86.43739 36027 ft 333 kts 250°
2026-05-07 01:29 36.91230 -86.49055 36024 ft 334 kts 249°
2026-05-07 01:29 36.89321 -86.54325 36028 ft 334 kts 249°
2026-05-07 01:30 36.87407 -86.59613 36028 ft 334 kts 249°
2026-05-07 01:30 36.85495 -86.64909 36022 ft 334 kts 249°
2026-05-07 01:31 36.83586 -86.70195 36021 ft 334 kts 249°
2026-05-07 01:31 36.81674 -86.75485 36018 ft 334 kts 249°
2026-05-07 01:32 36.79759 -86.80778 36019 ft 334 kts 249°
2026-05-07 01:32 36.77856 -86.86025 36014 ft 335 kts 249°
2026-05-07 01:33 36.75934 -86.91318 36021 ft 335 kts 249°
2026-05-07 01:33 36.74010 -86.96607 36014 ft 335 kts 249°
2026-05-07 01:34 36.72081 -87.01901 36015 ft 335 kts 249°
2026-05-07 01:34 36.70152 -87.07185 36027 ft 335 kts 248°
2026-05-07 01:35 36.68217 -87.12478 36036 ft 335 kts 248°
2026-05-07 01:35 36.66295 -87.17726 36035 ft 335 kts 248°
2026-05-07 01:36 36.64356 -87.23013 36044 ft 336 kts 248°
2026-05-07 01:36 36.62411 -87.28306 36056 ft 336 kts 248°
2026-05-07 01:37 36.60465 -87.33591 36056 ft 336 kts 248°
2026-05-07 01:37 36.58518 -87.38871 36052 ft 336 kts 248°
2026-05-07 01:38 36.56569 -87.44149 36072 ft 336 kts 248°
2026-05-07 01:38 36.54620 -87.49420 36071 ft 336 kts 248°
2026-05-07 01:39 36.52664 -87.54702 36071 ft 336 kts 248°
2026-05-07 01:39 36.50706 -87.59982 36071 ft 336 kts 248°
2026-05-07 01:40 36.48755 -87.65232 36071 ft 336 kts 248°
2026-05-07 01:40 36.46792 -87.70507 36064 ft 336 kts 248°
2026-05-07 01:41 36.44826 -87.75781 36062 ft 336 kts 248°
2026-05-07 01:41 36.42857 -87.81053 36060 ft 337 kts 248°
2026-05-07 01:42 36.40880 -87.86339 36060 ft 336 kts 248°
2026-05-07 01:42 36.38916 -87.91579 36055 ft 337 kts 248°
2026-05-07 01:43 36.36935 -87.96859 36061 ft 337 kts 248°
2026-05-07 01:43 36.34952 -88.02133 36056 ft 337 kts 248°
2026-05-07 01:44 36.32968 -88.07402 36054 ft 337 kts 248°
2026-05-07 01:44 36.30980 -88.12672 36054 ft 337 kts 248°
2026-05-07 01:45 36.28991 -88.17938 36052 ft 337 kts 248°
2026-05-07 01:45 36.26998 -88.23202 36057 ft 337 kts 248°
2026-05-07 01:46 36.25016 -88.28431 36053 ft 337 kts 247°
2026-05-07 01:46 36.23016 -88.33700 36056 ft 337 kts 247°
2026-05-07 01:47 36.21015 -88.38961 36057 ft 337 kts 247°
2026-05-07 01:47 36.19014 -88.44214 36036 ft 338 kts 247°
2026-05-07 01:48 36.17007 -88.49477 36034 ft 338 kts 247°
2026-05-07 01:48 36.14997 -88.54736 36036 ft 338 kts 247°
2026-05-07 01:49 36.12979 -88.59999 36042 ft 339 kts 247°
2026-05-07 01:49 36.10951 -88.65277 36044 ft 339 kts 247°
2026-05-07 01:50 36.08935 -88.70516 36047 ft 339 kts 247°
2026-05-07 01:50 36.06904 -88.75787 36045 ft 339 kts 247°
2026-05-07 01:51 36.04870 -88.81056 36051 ft 340 kts 247°
2026-05-07 01:51 36.02833 -88.86327 36056 ft 340 kts 247°
2026-05-07 01:52 36.00795 -88.91593 36064 ft 340 kts 247°
2026-05-07 01:52 35.98748 -88.96870 36057 ft 340 kts 247°
2026-05-07 01:53 35.96703 -89.02135 36060 ft 340 kts 247°
2026-05-07 01:53 35.94666 -89.07373 36066 ft 340 kts 247°
2026-05-07 01:54 35.92614 -89.12639 36064 ft 340 kts 247°
2026-05-07 01:54 35.90560 -89.17901 36064 ft 340 kts 247°
2026-05-07 01:55 35.88500 -89.23170 36066 ft 341 kts 246°
2026-05-07 01:55 35.86435 -89.28442 36064 ft 341 kts 246°
2026-05-07 01:56 35.84380 -89.33682 36069 ft 341 kts 246°
2026-05-07 01:56 35.82310 -89.38951 36063 ft 342 kts 246°
2026-05-07 01:57 35.80237 -89.44220 36065 ft 342 kts 246°
2026-05-07 01:57 35.78161 -89.49486 36066 ft 342 kts 246°
2026-05-07 01:58 35.76077 -89.54763 36060 ft 342 kts 246°
2026-05-07 01:58 35.73996 -89.60026 36064 ft 342 kts 246°
2026-05-07 01:59 35.71921 -89.65264 36061 ft 342 kts 246°
2026-05-07 01:59 35.69832 -89.70531 36061 ft 342 kts 246°
2026-05-07 02:00 35.68088 -89.74920 36061 ft 342 kts 246°
2026-05-07 02:00 35.65994 -89.80183 36065 ft 342 kts 246°
2026-05-07 02:01 35.63897 -89.85443 36057 ft 342 kts 246°
2026-05-07 02:01 35.61813 -89.90665 36053 ft 343 kts 246°
2026-05-07 02:02 35.59696 -89.95960 36046 ft 343 kts 246°
2026-05-07 02:02 35.57607 -90.01176 36044 ft 343 kts 246°
2026-05-07 02:03 35.55495 -90.06441 36051 ft 343 kts 246°
2026-05-07 02:03 35.53383 -90.11696 36049 ft 343 kts 246°
2026-05-07 02:04 35.51271 -90.16945 36052 ft 343 kts 246°
2026-05-07 02:04 35.49155 -90.22194 36056 ft 343 kts 246°
2026-05-07 02:05 35.47038 -90.27439 36059 ft 343 kts 246°
2026-05-07 02:05 35.44916 -90.32688 36057 ft 344 kts 246°
2026-05-07 02:06 35.42798 -90.37916 36053 ft 344 kts 246°
2026-05-07 02:06 35.40665 -90.43176 36064 ft 344 kts 246°
2026-05-07 02:07 35.38532 -90.48425 36065 ft 344 kts 246°
2026-05-07 02:07 35.35320 -90.56314 36058 ft 344 kts 246°
2026-05-07 02:08 35.33181 -90.61558 36068 ft 345 kts 246°
2026-05-07 02:08 35.31049 -90.66778 36064 ft 345 kts 246°
2026-05-07 02:09 35.28899 -90.72032 36052 ft 345 kts 246°
2026-05-07 02:09 35.26746 -90.77284 36055 ft 345 kts 246°
2026-05-07 02:10 35.24586 -90.82545 36049 ft 346 kts 246°
2026-05-07 02:10 35.22430 -90.87790 36049 ft 346 kts 246°
2026-05-07 02:11 35.20265 -90.93047 36047 ft 346 kts 246°
2026-05-07 02:11 35.18098 -90.98300 36053 ft 346 kts 245°
2026-05-07 02:12 35.15930 -91.03549 36056 ft 346 kts 245°
2026-05-07 02:12 35.13773 -91.08762 36061 ft 346 kts 245°
2026-05-07 02:13 35.11597 -91.14012 36063 ft 346 kts 245°
2026-05-07 02:13 35.09420 -91.19256 36066 ft 346 kts 245°
2026-05-07 02:14 35.07241 -91.24500 36071 ft 346 kts 245°
2026-05-07 02:14 35.05058 -91.29741 36071 ft 346 kts 245°
2026-05-07 02:15 35.02885 -91.34953 36072 ft 346 kts 245°
2026-05-07 02:15 35.00698 -91.40188 36071 ft 346 kts 245°
2026-05-07 02:16 34.98510 -91.45419 36069 ft 346 kts 245°
2026-05-07 02:16 34.96329 -91.50625 36065 ft 346 kts 245°
2026-05-07 02:17 34.94118 -91.55895 36067 ft 346 kts 245°
2026-05-07 02:17 34.91923 -91.61117 36063 ft 346 kts 245°
2026-05-07 02:18 34.89724 -91.66341 36061 ft 346 kts 245°
2026-05-07 02:18 34.87521 -91.71566 36059 ft 346 kts 245°
2026-05-07 02:19 34.85334 -91.76747 36061 ft 346 kts 245°
2026-05-07 02:19 34.83131 -91.81956 36061 ft 346 kts 245°
2026-05-07 02:20 34.80923 -91.87169 36061 ft 346 kts 245°
2026-05-07 02:20 34.78714 -91.92379 36061 ft 346 kts 245°
2026-05-07 02:21 34.76504 -91.97580 36059 ft 346 kts 245°
2026-05-07 02:21 34.74290 -92.02785 36075 ft 346 kts 245°
2026-05-07 02:22 34.72075 -92.07984 36072 ft 346 kts 245°
2026-05-07 02:22 34.69869 -92.13155 36071 ft 346 kts 245°
2026-05-07 02:23 34.67722 -92.18392 36068 ft 345 kts 249°
2026-05-07 02:23 34.66161 -92.23909 36074 ft 345 kts 252°
2026-05-07 02:24 34.64667 -92.29447 36074 ft 345 kts 252°
2026-05-07 02:24 34.63164 -92.34993 36070 ft 346 kts 252°
2026-05-07 02:25 34.61654 -92.40533 36072 ft 346 kts 252°
2026-05-07 02:25 34.60138 -92.46074 36072 ft 346 kts 252°
2026-05-07 02:26 34.58619 -92.51611 36072 ft 346 kts 252°
2026-05-07 02:26 34.57096 -92.57154 36076 ft 346 kts 252°
2026-05-07 02:27 34.55571 -92.62690 36074 ft 346 kts 252°
2026-05-07 02:27 34.54051 -92.68197 36069 ft 346 kts 251°
2026-05-07 02:28 34.52519 -92.73734 36063 ft 346 kts 251°
2026-05-07 02:28 34.50989 -92.79254 36066 ft 345 kts 251°
2026-05-07 02:29 34.49454 -92.84784 36068 ft 346 kts 251°
2026-05-07 02:29 34.47918 -92.90303 36076 ft 346 kts 251°
2026-05-07 02:30 34.46379 -92.95826 36076 ft 346 kts 251°
2026-05-07 02:30 34.44845 -93.01315 36071 ft 345 kts 251°
2026-05-07 02:31 34.43305 -93.06819 36073 ft 345 kts 251°
2026-05-07 02:31 34.41760 -93.12327 36074 ft 345 kts 251°
2026-05-07 02:32 34.40216 -93.17822 36076 ft 345 kts 251°
2026-05-07 02:32 34.38668 -93.23323 36065 ft 345 kts 251°
2026-05-07 02:33 34.37119 -93.28812 36061 ft 345 kts 251°
2026-05-07 02:33 34.35564 -93.34313 36061 ft 345 kts 251°
2026-05-07 02:34 34.34019 -93.39772 36062 ft 345 kts 251°
2026-05-07 02:34 34.32069 -93.45070 36059 ft 346 kts 245°
2026-05-07 02:35 34.29884 -93.50259 36049 ft 346 kts 245°
2026-05-07 02:35 34.27705 -93.55454 36057 ft 346 kts 245°
2026-05-07 02:36 34.25532 -93.60641 36049 ft 346 kts 245°
2026-05-07 02:36 34.23355 -93.65835 36050 ft 346 kts 245°
2026-05-07 02:37 34.21176 -93.71027 36050 ft 346 kts 245°
2026-05-07 02:37 34.18995 -93.76217 36044 ft 346 kts 245°
2026-05-07 02:38 34.16811 -93.81407 36047 ft 347 kts 245°
2026-05-07 02:38 34.14635 -93.86569 36051 ft 347 kts 245°
2026-05-07 02:39 34.12447 -93.91752 36046 ft 347 kts 245°
2026-05-07 02:39 34.10257 -93.96933 36045 ft 347 kts 245°
2026-05-07 02:40 34.08062 -94.02118 36048 ft 347 kts 245°
2026-05-07 02:40 34.05861 -94.07308 36049 ft 347 kts 245°
2026-05-07 02:41 34.03675 -94.12457 36053 ft 347 kts 245°
2026-05-07 02:41 34.01473 -94.17634 36052 ft 347 kts 245°
2026-05-07 02:42 33.99270 -94.22807 36050 ft 347 kts 245°
2026-05-07 02:42 33.97060 -94.27985 36055 ft 347 kts 245°
2026-05-07 02:43 33.94852 -94.33155 36053 ft 347 kts 245°
2026-05-07 02:43 33.92641 -94.38323 36053 ft 347 kts 245°
2026-05-07 02:44 33.90423 -94.43497 36054 ft 347 kts 245°
2026-05-07 02:44 33.88579 -94.47796 36052 ft 347 kts 245°
2026-05-07 02:45 33.86359 -94.52963 36048 ft 348 kts 245°
2026-05-07 02:45 33.84148 -94.58101 36043 ft 348 kts 245°
2026-05-07 02:46 33.81920 -94.63271 36044 ft 348 kts 244°
2026-05-07 02:46 33.79692 -94.68432 36055 ft 348 kts 244°
2026-05-07 02:47 33.77460 -94.73597 36046 ft 348 kts 244°
2026-05-07 02:47 33.75224 -94.78762 36046 ft 348 kts 244°
2026-05-07 02:48 33.72983 -94.83931 36051 ft 348 kts 244°
2026-05-07 02:48 33.70745 -94.89087 36059 ft 348 kts 244°
2026-05-07 02:49 33.68514 -94.94216 36052 ft 348 kts 244°
2026-05-07 02:49 33.66266 -94.99378 36059 ft 348 kts 244°
2026-05-07 02:50 33.64015 -95.04541 36058 ft 348 kts 244°
2026-05-07 02:50 33.61766 -95.09691 36062 ft 348 kts 244°
2026-05-07 02:51 33.59528 -95.14809 36066 ft 348 kts 244°
2026-05-07 02:51 33.57275 -95.19951 36074 ft 348 kts 244°
2026-05-07 02:52 33.55016 -95.25100 36078 ft 348 kts 244°
2026-05-07 02:52 33.52758 -95.30241 36083 ft 349 kts 244°
2026-05-07 02:53 33.50504 -95.35362 36070 ft 343 kts 244°
2026-05-07 02:53 33.48284 -95.40400 36073 ft 341 kts 244°
2026-05-07 02:54 33.47180 -95.42906 35568 ft 345 kts 244°
2026-05-07 02:54 33.46056 -95.45453 34949 ft 344 kts 243°
2026-05-07 02:54 33.44939 -95.47984 34266 ft 345 kts 243°
2026-05-07 02:54 33.43813 -95.50531 33504 ft 347 kts 243°
2026-05-07 02:55 33.42679 -95.53094 32722 ft 349 kts 243°
2026-05-07 02:55 33.41536 -95.55676 31942 ft 350 kts 243°
2026-05-07 02:55 33.40391 -95.58260 31179 ft 353 kts 243°
2026-05-07 02:55 33.39251 -95.60834 30390 ft 356 kts 243°
2026-05-07 02:56 33.38084 -95.63463 29439 ft 360 kts 243°
2026-05-07 02:56 33.36904 -95.66122 28492 ft 363 kts 243°
2026-05-07 02:56 33.35714 -95.68801 27555 ft 365 kts 243°
2026-05-07 02:56 33.34513 -95.71501 26600 ft 369 kts 243°
2026-05-07 02:57 33.33286 -95.74261 25826 ft 383 kts 244°
2026-05-07 02:57 33.32011 -95.77128 25050 ft 394 kts 244°
2026-05-07 02:57 33.30729 -95.80004 24301 ft 390 kts 244°
2026-05-07 02:57 33.29456 -95.82854 23537 ft 386 kts 244°
2026-05-07 02:58 33.28197 -95.85671 22708 ft 382 kts 244°
2026-05-07 02:58 33.26954 -95.88453 21957 ft 377 kts 243°
2026-05-07 02:58 33.25727 -95.91196 21230 ft 372 kts 243°
2026-05-07 02:58 33.24509 -95.93918 20531 ft 368 kts 243°
2026-05-07 02:59 33.23307 -95.96602 19851 ft 364 kts 243°
2026-05-07 02:59 33.22131 -95.99226 19189 ft 361 kts 243°
2026-05-07 02:59 33.20946 -96.01870 18495 ft 359 kts 243°
2026-05-07 02:59 33.19765 -96.04502 17738 ft 358 kts 243°
2026-05-07 03:00 33.18597 -96.07103 17029 ft 355 kts 243°
2026-05-07 03:00 33.17433 -96.09692 16329 ft 352 kts 243°
2026-05-07 03:00 33.16276 -96.12265 15656 ft 350 kts 243°
2026-05-07 03:00 33.15128 -96.14815 14996 ft 348 kts 243°
2026-05-07 03:01 33.13983 -96.17356 14351 ft 346 kts 243°
2026-05-07 03:01 33.12844 -96.19884 13670 ft 347 kts 243°
2026-05-07 03:01 33.11716 -96.22387 12990 ft 350 kts 243°
2026-05-07 03:01 33.10528 -96.25020 12322 ft 356 kts 243°
2026-05-07 03:02 33.09362 -96.27604 11666 ft 359 kts 243°
2026-05-07 03:02 33.08185 -96.30208 11217 ft 353 kts 243°
2026-05-07 03:02 33.07020 -96.32780 11083 ft 353 kts 243°
2026-05-07 03:02 33.05850 -96.35366 10936 ft 357 kts 243°
2026-05-07 03:03 33.04667 -96.37978 10781 ft 357 kts 243°
2026-05-07 03:03 33.03490 -96.40574 10622 ft 356 kts 243°
2026-05-07 03:03 33.02314 -96.43165 10480 ft 355 kts 243°
2026-05-07 03:03 33.01145 -96.45741 10332 ft 355 kts 243°
2026-05-07 03:04 32.99962 -96.48344 10184 ft 355 kts 243°
2026-05-07 03:04 32.98787 -96.50928 10012 ft 355 kts 243°
2026-05-07 03:04 32.97612 -96.53512 9561 ft 360 kts 242°
2026-05-07 03:04 32.96411 -96.56149 9132 ft 355 kts 243°
2026-05-07 03:05 32.95256 -96.58683 8736 ft 353 kts 243°
2026-05-07 03:05 32.94082 -96.61258 8348 ft 355 kts 243°
2026-05-07 03:05 32.92902 -96.63846 7956 ft 356 kts 243°
2026-05-07 03:05 32.91720 -96.66433 7563 ft 357 kts 243°
2026-05-07 03:06 32.90534 -96.69030 7157 ft 358 kts 243°
2026-05-07 03:06 32.89340 -96.71641 6755 ft 358 kts 243°
2026-05-07 03:06 32.88148 -96.74247 6365 ft 359 kts 243°
2026-05-07 03:06 32.86956 -96.76851 5944 ft 359 kts 243°
2026-05-07 03:07 32.85762 -96.79457 5540 ft 359 kts 243°
2026-05-07 03:07 32.84568 -96.82060 5122 ft 359 kts 243°
2026-05-07 03:07 32.83371 -96.84670 4690 ft 360 kts 243°
2026-05-07 03:07 32.82200 -96.87219 4423 ft 340 kts 243°
2026-05-07 03:08 32.81107 -96.89591 4263 ft 313 kts 243°
2026-05-07 03:08 32.80099 -96.91783 4128 ft 292 kts 243°
2026-05-07 03:08 32.79152 -96.93844 3995 ft 274 kts 243°
2026-05-07 03:08 32.78256 -96.95790 3790 ft 265 kts 243°
2026-05-07 03:09 32.77385 -96.97681 3545 ft 254 kts 244°
2026-05-07 03:09 32.76663 -96.99466 3297 ft 226 kts 261°
2026-05-07 03:09 32.76824 -97.01168 3070 ft 198 kts 306°
2026-05-07 03:09 32.77803 -97.02111 2777 ft 176 kts 347°
2026-05-07 03:10 32.78978 -97.02430 2434 ft 171 kts 355°
2026-05-07 03:10 32.80120 -97.02584 2132 ft 163 kts 357°
2026-05-07 03:10 32.81212 -97.02646 1911 ft 151 kts
2026-05-07 03:10 32.82212 -97.02648 1741 ft 135 kts
2026-05-07 03:11 32.83133 -97.02644 1578 ft 128 kts
2026-05-07 03:11 32.84039 -97.02638 1393 ft 131 kts
2026-05-07 03:11 32.84929 -97.02623 1296 ft 129 kts 359°
2026-05-07 03:11 32.85872 -97.02619 1144 ft 142 kts
2026-05-07 03:12 32.86880 -97.02615 872 ft 145 kts
2026-05-07 03:12 32.87877 -97.02618 675 ft 140 kts
2026-05-07 03:12 32.88775 -97.02605 620 ft 118 kts 359°
2026-05-07 03:12 32.89394 -97.02609 618 ft 59 kts
2026-05-07 03:13 32.89678 -97.02607 621 ft 36 kts 357°
2026-05-07 03:13 32.89906 -97.02664 628 ft 32 kts 330°
2026-05-07 03:13 32.90076 -97.02779 623 ft 21 kts 336°
2026-05-07 03:13 32.90126 -97.02817 624 ft 0 kts 304°
2026-05-07 03:14 32.90120 -97.02869 618 ft 14 kts 254°
2026-05-07 03:14 32.90107 -97.03041 615 ft 28 kts 273°
2026-05-07 03:14 32.90089 -97.03469 624 ft 21 kts 245°
2026-05-07 03:15 32.90066 -97.03506 625 ft 0 kts 230°
2026-05-07 03:15 32.90066 -97.03507 625 ft 1 kts 230°
2026-05-07 03:15 32.90035 -97.03516 622 ft 10 kts 184°
2026-05-07 03:15 32.89981 -97.03535 617 ft 7 kts 253°
2026-05-07 03:16 32.89965 -97.03577 615 ft 2 kts 242°
2026-05-07 03:16 32.89963 -97.03582 615 ft 0 kts 241°